,,,PA_Meas_PMT16A,,PR_Meas_QMR101_102,,RH_Meas_QMH101,,SR_Meas_QMS101,,TA_Meas_QMH101,,GenWind,,GenWind,
date,time,status,PA,status,PR,status,RH,status,SR,status,TA,status,DirAvg,status,SpdAvg,
2011-02-11, 00:00:04,VALID,1008.45,VALID,0,VALID,101.941,VALID,0,VALID,23.6922,VALID,344,VALID,0.303125,
2011-02-11, 00:01:04,VALID,1008.44,VALID,0,VALID,101.872,VALID,0,VALID,23.733,VALID,344,VALID,0.2125,
2011-02-11, 00:02:04,VALID,1008.39,VALID,0,VALID,101.827,VALID,0.105969,VALID,23.7525,VALID,344,VALID,0.1125,
2011-02-11, 00:03:04,VALID,1008.38,VALID,0,VALID,101.72,VALID,0,VALID,23.772,VALID,344,VALID,0,
2011-02-11, 00:04:04,VALID,1008.36,VALID,0,VALID,101.613,VALID,0,VALID,23.772,VALID,344,VALID,0,
2011-02-11, 00:05:04,VALID,1008.35,VALID,0,VALID,101.529,VALID,0,VALID,23.7914,VALID,344,VALID,0,
2011-02-11, 00:06:04,VALID,1008.36,VALID,0,VALID,101.423,VALID,0,VALID,23.7701,VALID,344,VALID,0,
2011-02-11, 00:07:04,VALID,1008.37,VALID,0,VALID,101.27,VALID,0,VALID,23.7701,VALID,344,VALID,0,
2011-02-11, 00:08:04,VALID,1008.4,VALID,0,VALID,101.156,VALID,0,VALID,23.772,VALID,344,VALID,0,
2011-02-11, 00:09:04,VALID,1008.41,VALID,0,VALID,101.041,VALID,0,VALID,23.7312,VALID,344,VALID,0,
2011-02-11, 00:10:04,VALID,1008.43,VALID,0,VALID,101.011,VALID,0,VALID,23.7312,VALID,344,VALID,0,
2011-02-11, 00:11:04,VALID,1008.41,VALID,0,VALID,101.056,VALID,0,VALID,23.7135,VALID,344,VALID,0,
2011-02-11, 00:12:04,VALID,1008.42,VALID,0,VALID,101.133,VALID,0,VALID,23.6922,VALID,344,VALID,0,
2011-02-11, 00:13:04,VALID,1008.41,VALID,0,VALID,101.178,VALID,0,VALID,23.694,VALID,344,VALID,0,
2011-02-11, 00:14:04,VALID,1008.38,VALID,0,VALID,101.262,VALID,0,VALID,23.6745,VALID,344,VALID,0,
2011-02-11, 00:15:04,VALID,1008.39,VALID,0,VALID,101.339,VALID,0,VALID,23.6338,VALID,344,VALID,0,
2011-02-11, 00:16:04,VALID,1008.4,VALID,0,VALID,101.377,VALID,0,VALID,23.6356,VALID,344,VALID,0,
2011-02-11, 00:17:04,VALID,1008.37,VALID,0,VALID,101.438,VALID,0,VALID,23.6143,VALID,344,VALID,0,
2011-02-11, 00:18:04,VALID,1008.36,VALID,0,VALID,101.522,VALID,0,VALID,23.6161,VALID,344,VALID,0,
2011-02-11, 00:19:04,VALID,1008.4,VALID,0,VALID,101.537,VALID,0,VALID,23.6161,VALID,344,VALID,0,
2011-02-11, 00:20:04,VALID,1008.37,VALID,0,VALID,101.606,VALID,0,VALID,23.5948,VALID,344,VALID,0,
2011-02-11, 00:21:04,VALID,1008.39,VALID,0,VALID,101.682,VALID,0,VALID,23.6161,VALID,344,VALID,0,
2011-02-11, 00:22:04,VALID,1008.37,VALID,0,VALID,101.735,VALID,0,VALID,23.5948,VALID,344,VALID,0,
2011-02-11, 00:23:04,VALID,1008.38,VALID,0,VALID,101.758,VALID,0.105969,VALID,23.6356,VALID,344,VALID,0,
2011-02-11, 00:24:04,VALID,1008.38,VALID,0,VALID,101.766,VALID,0.105969,VALID,23.6356,VALID,344,VALID,0,
2011-02-11, 00:25:04,VALID,1008.36,VALID,0,VALID,101.697,VALID,0,VALID,23.6143,VALID,344,VALID,0,
2011-02-11, 00:26:04,VALID,1008.37,VALID,0,VALID,101.72,VALID,0,VALID,23.6338,VALID,344,VALID,0,
2011-02-11, 00:27:04,VALID,1008.35,VALID,0,VALID,101.689,VALID,0,VALID,23.6356,VALID,344,VALID,0,
2011-02-11, 00:28:04,VALID,1008.34,VALID,0,VALID,101.697,VALID,0,VALID,23.6356,VALID,344,VALID,0,
2011-02-11, 00:29:04,VALID,1008.37,VALID,0,VALID,101.773,VALID,0,VALID,23.655,VALID,344,VALID,0,
2011-02-11, 00:30:04,VALID,1008.34,VALID,0,VALID,101.842,VALID,0,VALID,23.655,VALID,344,VALID,0,
2011-02-11, 00:31:04,VALID,1008.36,VALID,0,VALID,101.964,VALID,0,VALID,23.655,VALID,344,VALID,0,
2011-02-11, 00:32:04,VALID,1008.34,VALID,0,VALID,101.956,VALID,0,VALID,23.6338,VALID,344,VALID,0,
2011-02-11, 00:33:04,VALID,1008.33,VALID,0,VALID,101.888,VALID,0,VALID,23.655,VALID,344,VALID,0,
2011-02-11, 00:34:04,VALID,1008.31,VALID,0,VALID,101.842,VALID,0,VALID,23.6568,VALID,344,VALID,0,
2011-02-11, 00:35:04,VALID,1008.29,VALID,0,VALID,101.804,VALID,0,VALID,23.6745,VALID,344,VALID,0,
2011-02-11, 00:36:04,VALID,1008.29,VALID,0,VALID,101.918,VALID,0,VALID,23.6922,VALID,344,VALID,0,
2011-02-11, 00:37:04,VALID,1008.25,VALID,0,VALID,101.987,VALID,0,VALID,23.733,VALID,344,VALID,0,
2011-02-11, 00:38:04,VALID,1008.25,VALID,0,VALID,101.994,VALID,0,VALID,23.733,VALID,344,VALID,0,
2011-02-11, 00:39:04,VALID,1008.24,VALID,0,VALID,102.033,VALID,0,VALID,23.7525,VALID,344,VALID,0,
2011-02-11, 00:40:04,VALID,1008.26,VALID,0,VALID,102.055,VALID,0,VALID,23.772,VALID,344,VALID,0,
2011-02-11, 00:41:04,VALID,1008.23,VALID,0,VALID,101.956,VALID,0,VALID,23.7525,VALID,344,VALID,0,
2011-02-11, 00:42:04,VALID,1008.21,VALID,0,VALID,101.811,VALID,0,VALID,23.7117,VALID,344,VALID,0,
2011-02-11, 00:43:04,VALID,1008.2,VALID,0,VALID,101.911,VALID,0,VALID,23.7525,VALID,344,VALID,0,
2011-02-11, 00:44:04,VALID,1008.15,VALID,0,VALID,101.933,VALID,0,VALID,23.7507,VALID,344,VALID,0,
2011-02-11, 00:45:04,VALID,1008.12,VALID,0,VALID,101.857,VALID,0,VALID,23.7312,VALID,344,VALID,0,
2011-02-11, 00:46:04,VALID,1008.09,VALID,0,VALID,101.811,VALID,0,VALID,23.7312,VALID,344,VALID,0,
2011-02-11, 00:47:05,VALID,1008.07,VALID,0,VALID,101.743,VALID,0,VALID,23.7525,VALID,344,VALID,0,
2011-02-11, 00:48:05,VALID,1008.02,VALID,0,VALID,101.712,VALID,0,VALID,23.7525,VALID,344,VALID,0,
2011-02-11, 00:49:05,VALID,1008.03,VALID,0,VALID,101.743,VALID,0,VALID,23.733,VALID,344,VALID,0.287891,
2011-02-11, 00:50:05,VALID,1008.01,VALID,0,VALID,101.758,VALID,0,VALID,23.733,VALID,344,VALID,0.204297,
2011-02-11, 00:51:05,VALID,1008.01,VALID,0,VALID,101.735,VALID,0,VALID,23.7525,VALID,344,VALID,0.00351562,
2011-02-11, 00:52:05,VALID,1008.02,VALID,0,VALID,101.766,VALID,0,VALID,23.7525,VALID,344,VALID,0.117578,
2011-02-11, 00:53:05,VALID,1008.02,VALID,0,VALID,101.697,VALID,0,VALID,23.733,VALID,344,VALID,0,
2011-02-11, 00:54:05,VALID,1008.02,VALID,0,VALID,101.712,VALID,0,VALID,23.733,VALID,344,VALID,0.0855469,
2011-02-11, 00:55:05,VALID,1008.02,VALID,0,VALID,101.728,VALID,0,VALID,23.7312,VALID,344,VALID,0,
2011-02-11, 00:56:05,VALID,1008.01,VALID,0,VALID,101.72,VALID,0,VALID,23.7117,VALID,344,VALID,0,
2011-02-11, 00:57:05,VALID,1008.02,VALID,0,VALID,101.933,VALID,0,VALID,23.7701,VALID,330,VALID,0.960156,
2011-02-11, 00:58:05,VALID,1007.98,VALID,0,VALID,101.972,VALID,0,VALID,23.8304,VALID,328,VALID,0.546875,
2011-02-11, 00:59:05,VALID,1007.96,VALID,0,VALID,101.949,VALID,0,VALID,23.8694,VALID,352,VALID,0.542969,
2011-02-11, 01:00:05,VALID,1007.98,VALID,0,VALID,101.743,VALID,0,VALID,23.8889,VALID,341,VALID,0.483984,
2011-02-11, 01:01:05,VALID,1007.96,VALID,0,VALID,101.369,VALID,0,VALID,23.8481,VALID,341,VALID,0.31875,
2011-02-11, 01:02:05,VALID,1007.98,VALID,0,VALID,101.224,VALID,0,VALID,23.8499,VALID,341,VALID,0.443359,
2011-02-11, 01:03:05,VALID,1007.98,VALID,0,VALID,101.14,VALID,0,VALID,23.8109,VALID,341,VALID,0.260547,
2011-02-11, 01:04:05,VALID,1008.03,VALID,0,VALID,101.156,VALID,0,VALID,23.7701,VALID,341,VALID,0.340234,
2011-02-11, 01:05:05,VALID,1008.02,VALID,0,VALID,101.346,VALID,0,VALID,23.7525,VALID,341,VALID,0.378125,
2011-02-11, 01:06:05,VALID,1008.04,VALID,0,VALID,101.606,VALID,0,VALID,23.7312,VALID,341,VALID,0.396875,
2011-02-11, 01:07:05,VALID,1008.06,VALID,0,VALID,101.697,VALID,0,VALID,23.733,VALID,341,VALID,0.380469,
2011-02-11, 01:08:05,VALID,1008.08,VALID,0,VALID,101.842,VALID,0,VALID,23.7117,VALID,341,VALID,0.460938,
2011-02-11, 01:09:05,VALID,1008.07,VALID,0,VALID,101.987,VALID,0,VALID,23.7135,VALID,341,VALID,0.428516,
2011-02-11, 01:10:05,VALID,1008.08,VALID,0,VALID,102.094,VALID,0,VALID,23.733,VALID,341,VALID,0.448438,
2011-02-11, 01:11:05,VALID,1008.08,VALID,0,VALID,102.116,VALID,0,VALID,23.733,VALID,341,VALID,0.394141,
2011-02-11, 01:12:05,VALID,1008.1,VALID,0,VALID,102.124,VALID,0,VALID,23.733,VALID,341,VALID,0.418359,
2011-02-11, 01:13:05,VALID,1008.08,VALID,0,VALID,102.132,VALID,0,VALID,23.733,VALID,341,VALID,0.333203,
2011-02-11, 01:14:05,VALID,1008.07,VALID,0,VALID,102.147,VALID,0,VALID,23.733,VALID,341,VALID,0.236719,
2011-02-11, 01:15:05,VALID,1008.08,VALID,0,VALID,102.086,VALID,0,VALID,23.7312,VALID,341,VALID,0.333594,
2011-02-11, 01:16:05,VALID,1008.07,VALID,0,VALID,102.063,VALID,0,VALID,23.7525,VALID,341,VALID,0.433594,
2011-02-11, 01:17:05,VALID,1008.08,VALID,0,VALID,102.033,VALID,0.105969,VALID,23.7525,VALID,341,VALID,0.433594,
2011-02-11, 01:18:05,VALID,1008.07,VALID,0,VALID,102.033,VALID,0.105969,VALID,23.7117,VALID,341,VALID,0.339453,
2011-02-11, 01:19:05,VALID,1008.04,VALID,0,VALID,101.987,VALID,0,VALID,23.7117,VALID,341,VALID,0,
2011-02-11, 01:20:05,VALID,1008.02,VALID,0,VALID,101.933,VALID,0,VALID,23.6922,VALID,341,VALID,0,
2011-02-11, 01:21:05,VALID,1008.01,VALID,0,VALID,101.842,VALID,0,VALID,23.694,VALID,341,VALID,0,
2011-02-11, 01:22:05,VALID,1008.01,VALID,0,VALID,101.918,VALID,0,VALID,23.6727,VALID,341,VALID,0,
2011-02-11, 01:23:05,VALID,1007.98,VALID,0,VALID,101.994,VALID,0,VALID,23.694,VALID,341,VALID,0,
2011-02-11, 01:24:05,VALID,1007.99,VALID,0,VALID,102.048,VALID,0,VALID,23.694,VALID,341,VALID,0,
2011-02-11, 01:25:05,VALID,1007.98,VALID,0,VALID,102.017,VALID,0,VALID,23.655,VALID,341,VALID,0,
2011-02-11, 01:26:05,VALID,1007.99,VALID,0,VALID,102.063,VALID,0,VALID,23.655,VALID,341,VALID,0,
2011-02-11, 01:27:05,VALID,1007.99,VALID,0,VALID,102.116,VALID,0,VALID,23.6143,VALID,341,VALID,0,
2011-02-11, 01:28:05,VALID,1007.99,VALID,0,VALID,102.109,VALID,0.105969,VALID,23.6143,VALID,341,VALID,0,
2011-02-11, 01:29:05,VALID,1007.99,VALID,0,VALID,102.094,VALID,0,VALID,23.6161,VALID,341,VALID,0,
2011-02-11, 01:30:05,VALID,1008.01,VALID,0,VALID,102.124,VALID,0.105969,VALID,23.5948,VALID,341,VALID,0,
2011-02-11, 01:31:05,VALID,1008.03,VALID,0,VALID,102.177,VALID,0,VALID,23.5966,VALID,341,VALID,0,
2011-02-11, 01:32:05,VALID,1008.05,VALID,0,VALID,102.216,VALID,0,VALID,23.5753,VALID,341,VALID,0,
2011-02-11, 01:33:05,VALID,1008.06,VALID,0,VALID,102.216,VALID,0,VALID,23.5771,VALID,341,VALID,0,
2011-02-11, 01:34:05,VALID,1008.07,VALID,0,VALID,102.254,VALID,0,VALID,23.5558,VALID,341,VALID,0,
2011-02-11, 01:35:05,VALID,1008.06,VALID,0,VALID,102.261,VALID,0.105969,VALID,23.5576,VALID,341,VALID,0,
2011-02-11, 01:36:05,VALID,1008.08,VALID,0,VALID,102.299,VALID,0,VALID,23.5363,VALID,341,VALID,0,
2011-02-11, 01:37:05,VALID,1008.04,VALID,0,VALID,102.383,VALID,0.105969,VALID,23.5363,VALID,341,VALID,0,
2011-02-11, 01:38:05,VALID,1008.04,VALID,0,VALID,102.467,VALID,0,VALID,23.5363,VALID,341,VALID,0,
2011-02-11, 01:39:05,VALID,1008.02,VALID,0,VALID,102.544,VALID,0.105969,VALID,23.5576,VALID,341,VALID,0,
2011-02-11, 01:40:05,VALID,1008.02,VALID,0,VALID,102.559,VALID,0,VALID,23.5363,VALID,341,VALID,0,
2011-02-11, 01:41:05,VALID,1008,VALID,0,VALID,102.582,VALID,0.105969,VALID,23.5363,VALID,341,VALID,0,
2011-02-11, 01:42:05,VALID,1007.99,VALID,0,VALID,102.589,VALID,0,VALID,23.5363,VALID,341,VALID,0,
2011-02-11, 01:43:05,VALID,1008.01,VALID,0,VALID,102.627,VALID,0,VALID,23.5363,VALID,341,VALID,0,
2011-02-11, 01:44:05,VALID,1007.99,VALID,0,VALID,102.658,VALID,0.105969,VALID,23.5576,VALID,341,VALID,0,
2011-02-11, 01:45:05,VALID,1008.01,VALID,0,VALID,102.711,VALID,0.105969,VALID,23.5363,VALID,341,VALID,0,
2011-02-11, 01:46:05,VALID,1008.05,VALID,0,VALID,102.788,VALID,0.105969,VALID,23.5363,VALID,341,VALID,0,
2011-02-11, 01:47:05,VALID,1008.03,VALID,0,VALID,102.879,VALID,0,VALID,23.5771,VALID,341,VALID,0,
2011-02-11, 01:48:05,VALID,1008.03,VALID,0,VALID,102.948,VALID,0.105969,VALID,23.5753,VALID,341,VALID,0,
2011-02-11, 01:49:05,VALID,1008,VALID,0,VALID,102.986,VALID,0,VALID,23.6161,VALID,341,VALID,0,
2011-02-11, 01:50:05,VALID,1008,VALID,0,VALID,103.009,VALID,0.105969,VALID,23.5948,VALID,341,VALID,0,
2011-02-11, 01:51:05,VALID,1007.98,VALID,0,VALID,102.978,VALID,0,VALID,23.5753,VALID,341,VALID,0,
2011-02-11, 01:52:05,VALID,1007.93,VALID,0,VALID,102.986,VALID,0,VALID,23.5966,VALID,341,VALID,0,
2011-02-11, 01:53:05,VALID,1007.9,VALID,0,VALID,102.993,VALID,0,VALID,23.5966,VALID,341,VALID,0,
2011-02-11, 01:54:05,VALID,1007.87,VALID,0,VALID,102.986,VALID,0.105969,VALID,23.5753,VALID,341,VALID,0,
2011-02-11, 01:55:05,VALID,1007.86,VALID,0,VALID,102.993,VALID,0.105969,VALID,23.5948,VALID,341,VALID,0,
2011-02-11, 01:56:05,VALID,1007.86,VALID,0,VALID,102.963,VALID,0.105969,VALID,23.5753,VALID,341,VALID,0,
2011-02-11, 01:57:05,VALID,1007.86,VALID,0,VALID,102.955,VALID,0.105969,VALID,23.5753,VALID,341,VALID,0,
2011-02-11, 01:58:05,VALID,1007.87,VALID,0,VALID,102.955,VALID,0,VALID,23.5558,VALID,341,VALID,0,
2011-02-11, 01:59:05,VALID,1007.87,VALID,0,VALID,102.955,VALID,0,VALID,23.5363,VALID,341,VALID,0,
2011-02-11, 02:00:05,VALID,1007.85,VALID,0,VALID,102.971,VALID,0,VALID,23.5576,VALID,341,VALID,0,
2011-02-11, 02:01:05,VALID,1007.84,VALID,0,VALID,102.986,VALID,0,VALID,23.5363,VALID,341,VALID,0,
2011-02-11, 02:02:05,VALID,1007.85,VALID,0,VALID,103.032,VALID,0.105969,VALID,23.5363,VALID,341,VALID,0.332031,
2011-02-11, 02:03:05,VALID,1007.81,VALID,0,VALID,103.039,VALID,0.105969,VALID,23.5169,VALID,341,VALID,0.548437,
2011-02-11, 02:04:05,VALID,1007.81,VALID,0,VALID,103.047,VALID,0,VALID,23.5381,VALID,341,VALID,0.392969,
2011-02-11, 02:05:05,VALID,1007.8,VALID,0,VALID,103.062,VALID,0,VALID,23.5381,VALID,341,VALID,0.353125,
2011-02-11, 02:06:05,VALID,1007.79,VALID,0,VALID,103.108,VALID,0,VALID,23.5381,VALID,341,VALID,0.41875,
2011-02-11, 02:07:05,VALID,1007.79,VALID,0,VALID,103.146,VALID,0.105969,VALID,23.5381,VALID,341,VALID,0.475781,
2011-02-11, 02:08:05,VALID,1007.81,VALID,0,VALID,103.169,VALID,0,VALID,23.5381,VALID,341,VALID,0.427734,
2011-02-11, 02:09:05,VALID,1007.78,VALID,0,VALID,103.207,VALID,0,VALID,23.4974,VALID,341,VALID,0.295703,
2011-02-11, 02:10:05,VALID,1007.77,VALID,0,VALID,103.215,VALID,0,VALID,23.4974,VALID,341,VALID,0.4875,
2011-02-11, 02:11:05,VALID,1007.76,VALID,0,VALID,103.268,VALID,0,VALID,23.5381,VALID,84,VALID,0.367188,
2011-02-11, 02:12:05,VALID,1007.72,VALID,0,VALID,103.245,VALID,0,VALID,23.5381,VALID,84,VALID,0,
2011-02-11, 02:13:05,VALID,1007.71,VALID,0,VALID,103.26,VALID,0,VALID,23.5169,VALID,84,VALID,0,
2011-02-11, 02:14:05,VALID,1007.7,VALID,0,VALID,103.26,VALID,0,VALID,23.5381,VALID,84,VALID,0,
2011-02-11, 02:15:05,VALID,1007.7,VALID,0,VALID,103.222,VALID,0,VALID,23.5186,VALID,84,VALID,0.333594,
2011-02-11, 02:16:05,VALID,1007.67,VALID,0,VALID,103.207,VALID,0.105969,VALID,23.5186,VALID,84,VALID,0.301172,
2011-02-11, 02:17:05,VALID,1007.68,VALID,0,VALID,103.192,VALID,0.105969,VALID,23.4974,VALID,84,VALID,0.164844,
2011-02-11, 02:18:05,VALID,1007.67,VALID,0,VALID,103.169,VALID,0.105969,VALID,23.4974,VALID,84,VALID,0,
2011-02-11, 02:19:05,VALID,1007.65,VALID,0,VALID,103.131,VALID,0.105969,VALID,23.4779,VALID,84,VALID,0,
2011-02-11, 02:20:05,VALID,1007.64,VALID,0,VALID,103.131,VALID,0.105969,VALID,23.4992,VALID,84,VALID,0,
2011-02-11, 02:21:05,VALID,1007.65,VALID,0,VALID,103.138,VALID,0,VALID,23.4992,VALID,84,VALID,0.183203,
2011-02-11, 02:22:05,VALID,1007.63,VALID,0,VALID,103.161,VALID,0,VALID,23.4779,VALID,84,VALID,0,
2011-02-11, 02:23:05,VALID,1007.66,VALID,0,VALID,103.184,VALID,0,VALID,23.4779,VALID,84,VALID,0.0511719,
2011-02-11, 02:24:05,VALID,1007.64,VALID,0,VALID,103.146,VALID,0,VALID,23.4779,VALID,84,VALID,0.00351562,
2011-02-11, 02:25:05,VALID,1007.62,VALID,0,VALID,103.146,VALID,0,VALID,23.4584,VALID,84,VALID,0.554297,
2011-02-11, 02:26:05,VALID,1007.6,VALID,0,VALID,103.138,VALID,0.105969,VALID,23.4992,VALID,84,VALID,0.260156,
2011-02-11, 02:27:05,VALID,1007.59,VALID,0,VALID,103.115,VALID,0,VALID,23.4797,VALID,84,VALID,0.0492188,
2011-02-11, 02:28:05,VALID,1007.57,VALID,0,VALID,103.062,VALID,0.105969,VALID,23.4584,VALID,84,VALID,0.203125,
2011-02-11, 02:29:05,VALID,1007.56,VALID,0,VALID,103.001,VALID,0.105969,VALID,23.4584,VALID,84,VALID,0.245703,
2011-02-11, 02:30:05,VALID,1007.56,VALID,0,VALID,102.948,VALID,0,VALID,23.4584,VALID,84,VALID,0.105078,
2011-02-11, 02:31:05,VALID,1007.56,VALID,0,VALID,102.917,VALID,0,VALID,23.4602,VALID,84,VALID,0,
2011-02-11, 02:32:05,VALID,1007.54,VALID,0,VALID,102.871,VALID,0,VALID,23.4389,VALID,84,VALID,0,
2011-02-11, 02:33:05,VALID,1007.56,VALID,0,VALID,102.833,VALID,0,VALID,23.4194,VALID,84,VALID,0,
2011-02-11, 02:34:05,VALID,1007.55,VALID,0,VALID,102.849,VALID,0,VALID,23.4194,VALID,84,VALID,0,
2011-02-11, 02:35:05,VALID,1007.54,VALID,0,VALID,102.81,VALID,0,VALID,23.4407,VALID,84,VALID,0,
2011-02-11, 02:36:05,VALID,1007.55,VALID,0,VALID,102.841,VALID,0,VALID,23.4194,VALID,84,VALID,0,
2011-02-11, 02:37:05,VALID,1007.53,VALID,0,VALID,102.864,VALID,0,VALID,23.4194,VALID,84,VALID,0,
2011-02-11, 02:38:05,VALID,1007.5,VALID,0,VALID,102.887,VALID,0,VALID,23.4407,VALID,84,VALID,0,
2011-02-11, 02:39:05,VALID,1007.48,VALID,0,VALID,102.902,VALID,0,VALID,23.4194,VALID,84,VALID,0,
2011-02-11, 02:40:05,VALID,1007.45,VALID,0,VALID,102.856,VALID,0,VALID,23.3805,VALID,84,VALID,0,
2011-02-11, 02:41:05,VALID,1007.43,VALID,0,VALID,102.849,VALID,0,VALID,23.3823,VALID,84,VALID,0,
2011-02-11, 02:42:05,VALID,1007.45,VALID,0,VALID,102.849,VALID,0.105969,VALID,23.3415,VALID,84,VALID,0.314063,
2011-02-11, 02:43:05,VALID,1007.43,VALID,0,VALID,102.887,VALID,0,VALID,23.322,VALID,84,VALID,0.209766,
2011-02-11, 02:44:05,VALID,1007.41,VALID,0,VALID,102.871,VALID,0.105969,VALID,23.2831,VALID,84,VALID,0.00195313,
2011-02-11, 02:45:05,VALID,1007.42,VALID,0,VALID,102.925,VALID,0,VALID,23.2636,VALID,84,VALID,0,
2011-02-11, 02:46:05,VALID,1007.42,VALID,0,VALID,103.039,VALID,0,VALID,23.2636,VALID,84,VALID,0.105078,
2011-02-11, 02:47:05,VALID,1007.39,VALID,0,VALID,103.1,VALID,0.105969,VALID,23.2636,VALID,84,VALID,0,
2011-02-11, 02:48:05,VALID,1007.4,VALID,0,VALID,103.161,VALID,0,VALID,23.2636,VALID,84,VALID,0,
2011-02-11, 02:49:05,VALID,1007.38,VALID,0,VALID,103.215,VALID,0,VALID,23.2831,VALID,84,VALID,0,
2011-02-11, 02:50:05,VALID,1007.36,VALID,0,VALID,103.215,VALID,0.105969,VALID,23.2831,VALID,84,VALID,0,
2011-02-11, 02:51:05,VALID,1007.34,VALID,0,VALID,103.23,VALID,0,VALID,23.2831,VALID,84,VALID,0,
2011-02-11, 02:52:05,VALID,1007.36,VALID,0,VALID,103.245,VALID,0,VALID,23.2831,VALID,84,VALID,0,
2011-02-11, 02:53:05,VALID,1007.35,VALID,0,VALID,103.199,VALID,0,VALID,23.2848,VALID,84,VALID,0,
2011-02-11, 02:54:05,VALID,1007.34,VALID,0,VALID,103.184,VALID,0,VALID,23.2441,VALID,84,VALID,0,
2011-02-11, 02:55:05,VALID,1007.35,VALID,0,VALID,103.192,VALID,0.105969,VALID,23.2636,VALID,84,VALID,0,
2011-02-11, 02:56:05,VALID,1007.36,VALID,0,VALID,103.138,VALID,0,VALID,23.2654,VALID,84,VALID,0,
2011-02-11, 02:57:05,VALID,1007.37,VALID,0,VALID,103.138,VALID,0,VALID,23.2441,VALID,84,VALID,0,
2011-02-11, 02:58:05,VALID,1007.36,VALID,0,VALID,103.154,VALID,0.105969,VALID,23.2246,VALID,84,VALID,0,
2011-02-11, 02:59:05,VALID,1007.36,VALID,0,VALID,103.176,VALID,0.105969,VALID,23.2051,VALID,84,VALID,0,
2011-02-11, 03:00:05,VALID,1007.37,VALID,0,VALID,103.184,VALID,0,VALID,23.2264,VALID,84,VALID,0,
2011-02-11, 03:01:05,VALID,1007.37,VALID,0,VALID,103.207,VALID,0,VALID,23.2051,VALID,84,VALID,0,
2011-02-11, 03:02:05,VALID,1007.34,VALID,0,VALID,103.215,VALID,0.105969,VALID,23.2051,VALID,84,VALID,0,
2011-02-11, 03:03:05,VALID,1007.35,VALID,0,VALID,103.237,VALID,0,VALID,23.1662,VALID,84,VALID,0,
2011-02-11, 03:04:05,VALID,1007.34,VALID,0,VALID,103.268,VALID,0.105969,VALID,23.1857,VALID,84,VALID,0,
2011-02-11, 03:05:05,VALID,1007.35,VALID,0,VALID,103.306,VALID,0,VALID,23.1662,VALID,84,VALID,0,
2011-02-11, 03:06:05,VALID,1007.31,VALID,0,VALID,103.352,VALID,0,VALID,23.1662,VALID,84,VALID,0,
2011-02-11, 03:07:05,VALID,1007.29,VALID,0,VALID,103.39,VALID,0,VALID,23.1874,VALID,84,VALID,0,
2011-02-11, 03:08:05,VALID,1007.27,VALID,0,VALID,103.405,VALID,0,VALID,23.2069,VALID,84,VALID,0,
2011-02-11, 03:09:05,VALID,1007.27,VALID,0,VALID,103.405,VALID,0.105969,VALID,23.1857,VALID,84,VALID,0,
2011-02-11, 03:10:05,VALID,1007.25,VALID,0,VALID,103.42,VALID,0.105969,VALID,23.1857,VALID,84,VALID,0,
2011-02-11, 03:11:05,VALID,1007.24,VALID,0,VALID,103.405,VALID,0.105969,VALID,23.2069,VALID,84,VALID,0,
2011-02-11, 03:12:05,VALID,1007.25,VALID,0,VALID,103.42,VALID,0,VALID,23.2069,VALID,84,VALID,0,
2011-02-11, 03:13:05,VALID,1007.24,VALID,0,VALID,103.413,VALID,0.105969,VALID,23.1662,VALID,84,VALID,0,
2011-02-11, 03:14:05,VALID,1007.23,VALID,0,VALID,103.367,VALID,0,VALID,23.1662,VALID,84,VALID,0,
2011-02-11, 03:15:05,VALID,1007.22,VALID,0,VALID,103.39,VALID,0,VALID,23.1485,VALID,84,VALID,0,
2011-02-11, 03:16:05,VALID,1007.22,VALID,0,VALID,103.367,VALID,0,VALID,23.1272,VALID,84,VALID,0,
2011-02-11, 03:17:05,VALID,1007.2,VALID,0,VALID,103.405,VALID,0.105969,VALID,23.1272,VALID,84,VALID,0,
2011-02-11, 03:18:05,VALID,1007.21,VALID,0,VALID,103.428,VALID,0.105969,VALID,23.1272,VALID,84,VALID,0,
2011-02-11, 03:19:05,VALID,1007.2,VALID,0,VALID,103.459,VALID,0.105969,VALID,23.1077,VALID,84,VALID,0,
2011-02-11, 03:20:05,VALID,1007.2,VALID,0,VALID,103.459,VALID,0.105969,VALID,23.0883,VALID,84,VALID,0,
2011-02-11, 03:21:05,VALID,1007.19,VALID,0,VALID,103.504,VALID,0.105969,VALID,23.1077,VALID,84,VALID,0.340625,
2011-02-11, 03:22:05,VALID,1007.21,VALID,0,VALID,103.504,VALID,0,VALID,23.0493,VALID,84,VALID,0.448438,
2011-02-11, 03:23:05,VALID,1007.22,VALID,0,VALID,103.504,VALID,0,VALID,23.0298,VALID,84,VALID,0.390625,
2011-02-11, 03:24:05,VALID,1007.22,VALID,0,VALID,103.474,VALID,0,VALID,23.0316,VALID,84,VALID,0.304688,
2011-02-11, 03:25:05,VALID,1007.2,VALID,0,VALID,103.474,VALID,0,VALID,22.9714,VALID,84,VALID,0.214453,
2011-02-11, 03:26:05,VALID,1007.21,VALID,0,VALID,103.459,VALID,0.105969,VALID,22.9519,VALID,84,VALID,0,
2011-02-11, 03:27:05,VALID,1007.2,VALID,0,VALID,103.451,VALID,0.105969,VALID,22.9519,VALID,84,VALID,0,
2011-02-11, 03:28:04,VALID,1007.21,VALID,0,VALID,103.459,VALID,0,VALID,22.9324,VALID,84,VALID,0,
2011-02-11, 03:29:04,VALID,1007.21,VALID,0,VALID,103.474,VALID,0.105969,VALID,22.9129,VALID,84,VALID,0,
2011-02-11, 03:30:04,VALID,1007.25,VALID,0,VALID,103.512,VALID,0.105969,VALID,22.9342,VALID,84,VALID,0,
2011-02-11, 03:31:04,VALID,1007.24,VALID,0,VALID,103.52,VALID,0.105969,VALID,22.8545,VALID,84,VALID,0,
2011-02-11, 03:32:04,VALID,1007.24,VALID,0,VALID,103.52,VALID,0,VALID,22.835,VALID,84,VALID,0.217969,
2011-02-11, 03:33:04,VALID,1007.26,VALID,0,VALID,103.527,VALID,0,VALID,22.8562,VALID,84,VALID,0.104687,
2011-02-11, 03:34:04,VALID,1007.25,VALID,0,VALID,103.565,VALID,0,VALID,22.8368,VALID,84,VALID,0,
2011-02-11, 03:35:04,VALID,1007.26,VALID,0,VALID,103.581,VALID,0,VALID,22.8155,VALID,84,VALID,0,
2011-02-11, 03:36:04,VALID,1007.28,VALID,0,VALID,103.619,VALID,0,VALID,22.8173,VALID,84,VALID,0,
2011-02-11, 03:37:04,VALID,1007.28,VALID,0,VALID,103.626,VALID,0.105969,VALID,22.7961,VALID,84,VALID,0,
2011-02-11, 03:38:04,VALID,1007.29,VALID,0,VALID,103.634,VALID,0,VALID,22.8155,VALID,84,VALID,0,
2011-02-11, 03:39:04,VALID,1007.3,VALID,0,VALID,103.649,VALID,0,VALID,22.8368,VALID,84,VALID,0,
2011-02-11, 03:40:04,VALID,1007.33,VALID,0,VALID,103.672,VALID,0.105969,VALID,22.835,VALID,84,VALID,0,
2011-02-11, 03:41:04,VALID,1007.35,VALID,0,VALID,103.68,VALID,0.105969,VALID,22.8562,VALID,84,VALID,0,
2011-02-11, 03:42:04,VALID,1007.34,VALID,0,VALID,103.718,VALID,0.105969,VALID,22.8545,VALID,84,VALID,0,
2011-02-11, 03:43:04,VALID,1007.37,VALID,0,VALID,103.71,VALID,0,VALID,22.8952,VALID,84,VALID,0,
2011-02-11, 03:44:04,VALID,1007.39,VALID,0,VALID,103.741,VALID,0,VALID,22.874,VALID,84,VALID,0,
2011-02-11, 03:45:04,VALID,1007.37,VALID,0,VALID,103.741,VALID,0,VALID,22.8952,VALID,84,VALID,0,
2011-02-11, 03:46:04,VALID,1007.39,VALID,0,VALID,103.748,VALID,0,VALID,22.8935,VALID,84,VALID,0,
2011-02-11, 03:47:04,VALID,1007.4,VALID,0,VALID,103.748,VALID,0.105969,VALID,22.9147,VALID,84,VALID,0,
2011-02-11, 03:48:04,VALID,1007.4,VALID,0,VALID,103.764,VALID,0,VALID,22.8757,VALID,84,VALID,0,
2011-02-11, 03:49:04,VALID,1007.4,VALID,0,VALID,103.741,VALID,0,VALID,22.8935,VALID,84,VALID,0.303516,
2011-02-11, 03:50:04,VALID,1007.45,VALID,0,VALID,103.748,VALID,0,VALID,22.9342,VALID,70,VALID,0.936328,
2011-02-11, 03:51:04,VALID,1007.45,VALID,0,VALID,103.748,VALID,0,VALID,22.9324,VALID,85,VALID,1.03477,
2011-02-11, 03:52:04,VALID,1007.49,VALID,0,VALID,103.764,VALID,0,VALID,22.9342,VALID,80,VALID,1.01367,